Stations météo

réclame
Mon MeteoGroup
Kielder Castle, Grande-Bretagne (99186): Température de l'air & dewpoint: 09.11.2018 08:00:00 - 15.11.2018 08:00:00 (GMT)Kielder Castle, Grande-Bretagne (99186): Température de l'air -20cm & Température de l'air -100cm: 09.11.2018 08:00:00 - 15.11.2018 08:00:00 (GMT)Kielder Castle, Grande-Bretagne (99186): Quantités de précipitations: 09.11.2018 08:00:00 - 15.11.2018 08:00:00 (GMT)
Date & Time tt [°C] td [°C] tt -20cm [°C] tt -100cm [°C] rr [mm]
15.11.2018 08:00:00 2,6 2,5 - - 0,0
15.11.2018 07:00:00 3,2 3,1 - - 0,0
15.11.2018 06:00:00 4,6 4,5 - - 0,0
15.11.2018 05:00:00 5,8 5,8 - - 0,0
15.11.2018 04:00:00 5,4 5,3 - - 0,0
15.11.2018 03:00:00 5,2 5,1 - - 0,0
15.11.2018 02:00:00 4,7 4,5 - - 0,2
15.11.2018 01:00:00 5,1 4,6 - - 0,0
15.11.2018 00:00:00 7,2 6,2 - - 0,0
14.11.2018 23:00:00 8,3 6,8 - - 0,0
14.11.2018 22:00:00 9,1 7,4 - - 0,0
14.11.2018 21:00:00 9,0 7,4 - - 0,0
14.11.2018 20:00:00 10,0 8,0 - - 0,0
14.11.2018 19:00:00 10,4 8,7 - - 0,0
14.11.2018 18:00:00 10,7 8,9 - - 0,0
14.11.2018 17:00:00 11,1 9,2 - - 0,0
14.11.2018 16:00:00 11,4 10,0 - - 0,0
14.11.2018 15:00:00 11,4 10,3 - - 0,0
14.11.2018 14:00:00 11,6 10,5 - - 0,0
14.11.2018 13:00:00 11,4 10,8 - - 1,2
14.11.2018 12:00:00 11,1 10,9 - - 2,8
14.11.2018 11:00:00 10,5 10,4 - - 1,8
14.11.2018 10:00:00 10,2 9,9 - - 4,2
14.11.2018 09:00:00 9,7 9,3 8,2 9,0 1,2
14.11.2018 08:00:00 9,1 8,7 - - 2,0
14.11.2018 07:00:00 8,9 8,3 - - 1,0
14.11.2018 06:00:00 8,8 8,1 - - 0,6
14.11.2018 05:00:00 8,6 7,9 - - 0,6
14.11.2018 04:00:00 8,7 7,9 - - 0,2
14.11.2018 03:00:00 8,5 7,7 - - 0,0
14.11.2018 02:00:00 9,2 6,9 - - 0,0
14.11.2018 01:00:00 9,1 6,7 - - 0,0
14.11.2018 00:00:00 9,1 6,9 - - 0,0
13.11.2018 23:00:00 8,7 7,1 - - 0,0
13.11.2018 22:00:00 8,5 7,3 - - 0,0
13.11.2018 21:00:00 8,0 6,9 - - 0,0
13.11.2018 20:00:00 8,0 6,9 - - 0,2
13.11.2018 19:00:00 8,3 6,9 - - 0,0
13.11.2018 18:00:00 8,3 6,7 - - 0,0
13.11.2018 17:00:00 8,5 6,8 - - 0,0
13.11.2018 16:00:00 8,5 6,7 - - 0,0
13.11.2018 15:00:00 8,5 7,1 - - 0,0
13.11.2018 14:00:00 8,5 6,2 - - 0,0
13.11.2018 13:00:00 8,4 6,0 - - 0,0
13.11.2018 12:00:00 8,1 5,8 - - 0,0
13.11.2018 11:00:00 8,2 6,5 - - 0,0
13.11.2018 10:00:00 7,6 6,4 - - 0,0
13.11.2018 09:00:00 7,7 7,0 8,0 9,0 0,4
13.11.2018 08:00:00 7,7 7,0 - - 0,0
13.11.2018 07:00:00 7,6 7,0 - - 0,2
13.11.2018 06:00:00 7,8 7,0 - - 0,2
13.11.2018 05:00:00 7,7 6,9 - - 0,0
13.11.2018 04:00:00 7,5 6,8 - - 0,0
13.11.2018 03:00:00 7,2 6,9 - - 0,4
13.11.2018 02:00:00 7,0 6,6 - - 0,8
13.11.2018 01:00:00 6,9 6,4 - - 0,6
13.11.2018 00:00:00 7,0 6,1 - - 0,2
12.11.2018 23:00:00 7,2 6,1 - - 0,0
12.11.2018 22:00:00 6,9 5,6 - - 0,0
12.11.2018 21:00:00 7,2 6,1 - - 0,0
12.11.2018 20:00:00 7,2 6,6 - - 2,4
12.11.2018 19:00:00 7,2 6,8 - - 1,8
12.11.2018 18:00:00 6,6 6,1 - - 0,2
12.11.2018 17:00:00 6,3 5,3 - - 0,0
12.11.2018 16:00:00 7,0 5,9 - - 0,0
12.11.2018 15:00:00 7,3 6,2 - - 1,2
12.11.2018 14:00:00 7,8 6,6 - - 1,4
12.11.2018 13:00:00 9,0 7,2 - - 0,6
12.11.2018 12:00:00 8,6 6,9 - - 0,2
12.11.2018 11:00:00 9,4 6,7 - - 0,0
12.11.2018 10:00:00 8,3 6,6 - - 0,0
12.11.2018 09:00:00 7,7 6,4 7,9 9,2 0,0
12.11.2018 08:00:00 7,1 6,1 - - 0,0
12.11.2018 07:00:00 7,3 6,2 - - 0,0
12.11.2018 06:00:00 7,6 6,5 - - 0,0
12.11.2018 05:00:00 7,5 6,7 - - 0,2
12.11.2018 04:00:00 7,3 6,7 - - 0,4
12.11.2018 03:00:00 7,3 6,4 - - 0,4
12.11.2018 02:00:00 7,3 6,4 - - 0,2
12.11.2018 01:00:00 7,0 6,1 - - 0,0
12.11.2018 00:00:00 6,6 5,6 - - 0,0
11.11.2018 23:00:00 6,6 6,0 - - 1,6
11.11.2018 22:00:00 5,9 5,4 - - 0,2
11.11.2018 21:00:00 6,0 5,8 - - 2,0
11.11.2018 20:00:00 4,2 4,2 - - 0,6
11.11.2018 19:00:00 3,8 3,6 - - 0,0
11.11.2018 18:00:00 4,5 4,1 - - 0,0
11.11.2018 17:00:00 6,0 5,3 - - 0,2
11.11.2018 16:00:00 6,9 6,3 - - 0,2
11.11.2018 15:00:00 7,4 7,2 - - 0,4
11.11.2018 14:00:00 6,6 6,6 - - 0,4
11.11.2018 13:00:00 5,9 5,8 - - 1,2
11.11.2018 12:00:00 5,5 5,5 - - 0,0
11.11.2018 11:00:00 5,0 5,0 - - 0,0
11.11.2018 10:00:00 4,5 4,3 - - 0,0
11.11.2018 09:00:00 3,7 3,7 8,2 9,2 0,0
11.11.2018 08:00:00 3,4 3,4 - - 0,0
11.11.2018 07:00:00 2,8 2,8 - - 0,2
11.11.2018 06:00:00 3,2 3,2 - - 0,0
11.11.2018 05:00:00 3,6 3,6 - - 0,0
11.11.2018 04:00:00 3,3 3,3 - - 0,0
11.11.2018 03:00:00 3,0 3,0 - - 0,0
11.11.2018 02:00:00 4,3 4,3 - - 0,0
11.11.2018 01:00:00 5,0 5,0 - - 0,0
11.11.2018 00:00:00 4,4 4,4 - - 0,0
10.11.2018 23:00:00 3,7 3,6 - - 0,0
10.11.2018 22:00:00 4,6 4,4 - - 0,0
10.11.2018 21:00:00 5,7 5,5 - - 0,2
10.11.2018 20:00:00 6,6 5,8 - - 0,0
10.11.2018 19:00:00 6,9 5,9 - - 4,0
10.11.2018 18:00:00 8,0 7,3 - - 0,0
10.11.2018 17:00:00 7,9 7,1 - - 0,0
10.11.2018 16:00:00 8,5 6,6 - - 0,0
10.11.2018 15:00:00 8,8 6,1 - - 0,2
10.11.2018 14:00:00 9,0 6,2 - - 0,0
10.11.2018 13:00:00 9,5 6,4 - - 0,0
10.11.2018 12:00:00 8,7 7,2 - - 0,0
10.11.2018 11:00:00 8,0 7,0 - - 0,0
10.11.2018 10:00:00 7,6 7,1 - - 0,0
10.11.2018 09:00:00 6,9 6,4 8,4 9,2 0,4
10.11.2018 08:00:00 6,7 6,3 - - 1,0
10.11.2018 07:00:00 7,1 7,0 - - 0,6
10.11.2018 06:00:00 6,7 6,6 - - 0,4
10.11.2018 05:00:00 7,2 6,8 - - 0,0
10.11.2018 04:00:00 7,3 7,0 - - 0,0
10.11.2018 03:00:00 7,3 6,8 - - 0,0
10.11.2018 02:00:00 8,7 7,7 - - 0,2
10.11.2018 01:00:00 8,7 7,9 - - 0,4
10.11.2018 00:00:00 8,4 7,4 - - 0,4
09.11.2018 23:00:00 8,0 7,1 - - 0,6
09.11.2018 22:00:00 7,8 7,1 - - 1,4
09.11.2018 21:00:00 8,0 7,2 - - 1,8
09.11.2018 20:00:00 8,2 7,3 - - 1,4
09.11.2018 19:00:00 9,1 7,0 - - 0,0
09.11.2018 18:00:00 9,0 7,7 - - 0,0
09.11.2018 17:00:00 8,2 7,4 - - 0,0
09.11.2018 16:00:00 7,8 6,6 - - 0,0
09.11.2018 15:00:00 7,8 6,4 - - 0,0
09.11.2018 14:00:00 7,4 6,2 - - 0,0
09.11.2018 13:00:00 7,1 6,0 - - 0,0
09.11.2018 12:00:00 7,3 5,8 - - 0,0
09.11.2018 11:00:00 6,7 5,7 - - 0,0
09.11.2018 10:00:00 6,6 5,4 - - 0,0
09.11.2018 09:00:00 6,7 5,4 8,4 9,2 0,0
09.11.2018 08:00:00 6,3 5,0 - - 0,0

tt = Température de l'air
td = dewpoint
tt -20cm = Température de l'air -20cm
tt -100cm = Température de l'air -100cm
rr = Quantités de précipitations

stations d'obs. à proximité